Regional Weather Roundup
Issued by NWS Little Rock, AR

Home | Current Version | Previous Version | Graphics & Text | Print | Product List | Glossary Off
Versions: 1 2 3 4 5 6 7 8 9 10 11 12 13 14 15 16 17 18 19 20 21 22 23 24 25 26 27 28 29 30 31

000
ASUS44 KLZK 250305
RWRLZK

WEATHER ROUNDUP FOR ARKANSAS
NATIONAL WEATHER SERVICE LITTLE ROCK AR
900 PM CST SAT FEB 24 2018

NOTE: "FAIR" INDICATES FEW OR NO CLOUDS BELOW 12,000 FEET WITH NO
SIGNIFICANT WEATHER AND/OR OBSTRUCTIONS TO VISIBILITY.

ARZ001-003-010-029-250400-
NORTHWEST ARKANSAS

CITY           SKY/WX    TMP DP  RH WIND       PRES   REMARKS
FAYETTEVILLE   CLEAR     42  38  85 W10       29.97R
FORT SMITH     PTCLDY    50  42  74 NW12      29.97R
HARRISON       PTCLDY    44  38  79 W13G25    29.91R
BENTONVILLE    CLEAR     39  36  89 NW6       29.98R
ROGERS         PTCLDY    38  35  89 W8        29.97R
SILOAM SPGS    CLEAR     39  36  89 W7        29.97R
SPRINGDALE     CLEAR     41  37  87 NW10G16   29.98R
$$

ARZ004-005-016-250400-
NORTH CENTRAL ARKANSAS

CITY           SKY/WX    TMP DP  RH WIND       PRES   REMARKS
BATESVILLE     CLOUDY    58  55  90 W12       29.85R
FLIPPIN        CLOUDY    50  42  74 W15G23    29.90R
MTN HOME       CLOUDY    48  43  82 NW9G17    29.88R
$$

ARZ040-041-250400-
WEST CENTRAL ARKANSAS

CITY           SKY/WX    TMP DP  RH WIND       PRES   REMARKS
MENA           MOCLDY    54  52  94 W6        29.95R
MOUNT IDA      PTCLDY    54  51  90 NW5       29.92R
$$

ARZ009-017-025-026-028-250400-
NORTHEAST ARKANSAS

CITY           SKY/WX    TMP DP  RH WIND       PRES   REMARKS
JONESBORO      MOCLDY    61  59  93 SW15      29.81R
NEWPORT          N/A     61  56  83 W18G24    29.84R
WALNUT RIDGE   FAIR      61  58  90 SW14      29.81R
BLYTHEVILLE    LGT RAIN  60  54  80 SW17G28   29.83R
$$

ARZ022-023-033-042-044-250400-
CENTRAL ARKANSAS

CITY           SKY/WX    TMP DP  RH WIND       PRES   REMARKS
LITTLE ROCK    CLOUDY    57  56  96 W9        29.90R
N LITTLE ROCK    N/A     55  53  93 W8G16     29.89R
JACKSONVILLE   PTCLDY    58  57  97 W14       29.89R
SEARCY         CLOUDY    59  57  93 W14G21    29.88R
HOT SPRINGS    CLOUDY    56  53  90 NW6       29.94R
RUSSELLVILLE   CLOUDY    51  47  86 W12       29.92R
CLINTON        FAIR      55  52  88 SW10G18   29.88R
$$

ARZ036-250400-
EAST ARKANSAS

CITY           SKY/WX    TMP DP  RH WIND       PRES   REMARKS
WEST MEMPHIS   RAIN      57  57 100 SW10G17   29.87R FOG
$$

ARZ050-053-066-070-073-250400-
SOUTHWEST ARKANSAS

CITY           SKY/WX    TMP DP  RH WIND       PRES   REMARKS
ARKADELPHIA    CLOUDY    57  56  96 W7        29.94R
CAMDEN         CLOUDY    55  52  88 SW6       29.94R
TEXARKANA      CLOUDY    55  54  96 W6        29.95R
EL DORADO      LGT RAIN  55  55 100 SW5       29.96R
DE QUEEN       PTCLDY    52  52 100 W6        29.95R
$$

ARZ056-057-069-250400-
SOUTHEAST ARKANSAS

CITY           SKY/WX    TMP DP  RH WIND       PRES   REMARKS
PINE BLUFF     LGT RAIN  54  52  93 W9        29.92R
STUTTGART      LGT RAIN  57  53  86 SW13      29.90R
MONTICELLO     LGT RAIN  55  52  89 W9        29.93R

$$






USA.gov is the U.S. government's official web portal to all federal, state and local government web resources and services.